This is the latest recevied weather packets stored in our database for station/object KC8QDR-1. If no packets are shown the sender has not sent any weather packets the latest 10 day(s).
| Time | Temp. | Humidity | Pressure | Rain* | Wind** | Luminosity | Snow |
|---|---|---|---|---|---|---|---|
| 1777958924 | 17.78° C | 68% | 1013.3 hPa | 0 mm | 2.68 m/s, 179° | - | - |
| 1777958325 | 17.78° C | 69% | 1013.4 hPa | 0 mm | 2.24 m/s, 223° | - | - |
| 1777957725 | 17.78° C | 68% | 1013.5 hPa | 0 mm | 2.68 m/s, 193° | - | - |
| 1777957125 | 17.78° C | 67% | 1013.7 hPa | 0 mm | 2.24 m/s, 199° | - | - |
| 1777956525 | 17.78° C | 68% | 1013.6 hPa | 0 mm | 1.79 m/s, 203° | - | - |
| 1777955925 | 17.22° C | 67% | 1013.6 hPa | 0 mm | 2.24 m/s, 190° | - | - |
| 1777955325 | 17.22° C | 67% | 1013.6 hPa | 0 mm | 2.24 m/s, 189° | - | - |
| 1777954725 | 17.78° C | 67% | 1013.7 hPa | 0 mm | 1.79 m/s, 182° | - | - |
| 1777954125 | 17.78° C | 66% | 1013.7 hPa | 0 mm | 4.02 m/s, 194° | - | - |
| 1777953525 | 17.78° C | 66% | 1013.8 hPa | 0 mm | 2.24 m/s, 186° | - | - |
| 1777952925 | 17.78° C | 65% | 1013.9 hPa | 0 mm | 2.68 m/s, 184° | - | - |
| 1777952327 | 17.78° C | 65% | 1013.8 hPa | 0 mm | 2.68 m/s, 194° | - | - |
| 1777951725 | 17.78° C | 65% | 1013.7 hPa | 0 mm | 2.24 m/s, 196° | - | - |
| 1777951125 | 17.78° C | 64% | 1013.6 hPa | 0 mm | 1.79 m/s, 201° | - | - |
| 1777950525 | 18.33° C | 64% | 1013.6 hPa | 0 mm | 1.79 m/s, 200° | - | - |
| 1777949925 | 18.33° C | 63% | 1013.6 hPa | 0 mm | 2.24 m/s, 180° | - | - |
| 1777949325 | 18.33° C | 63% | 1013.6 hPa | 0 mm | 1.79 m/s, 183° | - | - |
| 1777948725 | 18.89° C | 62% | 1013.8 hPa | 0 mm | 1.34 m/s, 187° | - | - |
| 1777948127 | 18.33° C | 61% | 1014 hPa | 0 mm | 2.68 m/s, 191° | - | - |
| 1777947525 | 18.89° C | 62% | 1014.3 hPa | 0 mm | 2.68 m/s, 191° | - | - |
| 1777946925 | 18.89° C | 61% | 1014.5 hPa | 0 mm | 2.24 m/s, 220° | - | - |
| 1777946325 | 18.89° C | 59% | 1014.5 hPa | 0 mm | 2.68 m/s, 193° | - | - |
| 1777945725 | 19.44° C | 60% | 1014.4 hPa | 0 mm | 2.68 m/s, 194° | - | - |
| 1777945125 | 19.44° C | 59% | 1014.4 hPa | 0 mm | 1.79 m/s, 196° | - | - |
| 1777944525 | 19.44° C | 59% | 1014.3 hPa | 0 mm | 2.68 m/s, 232° | - | - |
* Rain latest hour (hover to see other rain measurements)
** Current wind speed in m/s (hover to see current wind gust speed)